Quick links : Home Page : Contact Us : Index : Site Map : Search Site : Ephemerides


(16636) 1993 QP

Orbital Elements

The following orbital elements are taken from MPO124245
 (16636) 1993 QP
Epoch 2007 Oct. 27.0 TT = JDT 2454400.5                 MPC
M  13.32236              (2000.0)            P               Q
n   0.28114528     Peri.   46.56023     +0.95536221     +0.27333388
a   2.3077150      Node   297.28597     -0.29413750     +0.84444140
e   0.4693810      Incl.    7.24783     -0.02767983     +0.46065965
P   3.51           H   18.7           G   0.15           U   0
From 508 observations at 3 oppositions, 1993-2007, mean residual 0".55.
An explanation of the orbital elements is available.

These orbital elements are also available in forms suitable for loading into a number of popular planetarium-type software programs.


Ephemeris

The following ephemeris is at intervals of five days. A daily ephemeris covering the same time interval is also available.

Personalized ephemerides for this (and other) objects may be generated using the Minor Planet & Comet Ephemeris Service.

Date    TT    R. A. (2000) Decl.     Delta      r     Elong.  Phase     V
2008 08 22    08 57.00   +16 23.1    3.813    2.862    17.1     6.0    24.4

Back to Observable Critical-List Minor Planets

MPC

Valid HTML 4.01!